User: anonymous   Login
Location: Unspecified
(0.0000°N, 0.0000°E)
Time: 08:38:39
(UTC+00:00)
Language:

NAVSTAR 64 (USA 206) - Orbit

View from above orbital plane
View from above orbital plane
View from above satellite
View from above satellite

Ground track
Ground track

The orbit data is extracted from the following two-line orbital elements,

1 35752U 09043A   16208.58543407  .00000059  00000-0  00000+0 0  9994
2 35752  54.2291 172.7192 0045173  24.1473 107.9257  2.00576092 50880
Epoch (UTC): 26 July 2016 14:03:01
Eccentricity: 0.0045173
inclination: 54.2291°
perigee height: 20061 km
apogee height: 20301 km
right ascension of ascending node: 172.7192°
argument of perigee: 24.1473°
revolutions per day: 2.00576092
mean anomaly at epoch: 107.9257°
orbit number at epoch: 5088

The dashed part of the orbit path shows where the satellite is in the earth's shadow,  

DLR